Theta_e
338 339 341 341 340 340 340 340 339 338 338 337 336 335 334 334 333 332 332 332 331 330 328 326 324 324 326
339 331 334 336 336 337 336 333 331 332 334 334 332 334 333 332 332 331 331 330 330 328 326 324 323 325 326
337 333 331 330 330 329 329 327 329 333 333 332 330 333 333 332 331 330 328 326 325 325 324 322 324 327 327
334 336 335 334 333 335 336 335 334 333 332 331 325 324 325 328 330 328 326 323 325 327 327 325 327 328 328
332 334 334 332 331 333 334 334 333 331 331 330 329 328 327 322 328 327 327 326 326 326 327 327 327 327 327
334 332 331 330 330 329 330 332 331 330 329 328 327 327 328 328 327 328 328 327 326 326 326 326 326 326 326
335 333 330 329 329 329 329 331 331 329 328 327 328 328 329 330 329 329 328 328 328 326 326 325 325 326 326
330 334 330 329 329 330 331 332 331 331 330 329 329 329 330 330 330 330 329 328 328 327 326 325 325 327 326
330 331 331 330 328 330 331 332 331 330 329 329 330 330 330 330 329 329 328 328 328 326 325 326 328 327 326
331 333 332 332 331 330 331 333 331 330 329 329 329 329 330 329 329 329 329 327 327 327 327 328 328 327 324
331 331 333 332 332 331 333 334 333 330 327 329 330 330 330 328 324 324 326 323 324 327 325 326 327 325 322
329 330 330 331 331 332 332 334 334 331 327 327 330 331 328 325 323 324 322 326 324 324 322 323 324 322 321
327 326 328 327 329 330 332 332 331 330 329 327 327 327 328 327 326 326 323 322 321 324 323 323 321 321 319
329 330 330 330 331 332 333 331 330 330 330 328 328 326 328 326 324 323 321 320 320 322 320 319 315 315 318
332 331 331 333 332 331 331 331 331 331 330 330 329 330 327 327 327 323 322 321 320 318 320 319 313 310 311
333 331 329 328 327 330 331 331 332 333 331 332 330 330 330 331 327 324 322 322 321 317 318 317 317 315 307
Wind_Speed
9 7 8 11 12 10 13 13 14 11 12 13 12 12 13 12 12 12 12 13 12 11 10 10 9 8 10
9 8 7 8 10 11 13 12 11 11 10 10 10 11 12 11 11 11 10 10 11 10 9 7 4 0 8
9 7 8 7 9 10 10 9 7 7 8 8 10 9 11 10 10 9 9 8 7 8 7 4 5 5 5
7 8 7 6 5 6 6 6 5 6 5 7 8 9 8 8 8 7 7 4 2 3 3 2 4 5 4
8 6 4 4 4 4 6 5 5 5 4 3 4 3 4 1 3 3 3 3 5 3 3 4 4 4 4
7 6 6 5 4 4 4 5 4 4 4 4 3 3 3 2 3 2 3 3 3 3 4 4 5 4 4
7 7 7 6 6 6 6 5 3 3 3 3 3 3 2 2 2 2 2 1 2 3 3 4 5 5 5
6 6 5 5 6 6 5 5 5 3 3 3 3 3 2 1 1 1 1 1 2 3 4 5 5 5 5
11 9 6 5 6 6 5 6 6 5 5 4 3 3 3 2 2 2 1 1 2 2 3 3 4 5 4
10 8 7 6 6 6 5 5 7 6 5 5 3 4 4 3 3 2 1 2 2 2 3 4 3 3 4
12 8 8 8 7 6 6 6 9 8 7 6 4 4 5 3 2 2 2 2 3 2 4 4 2 3 4
9 8 7 7 7 7 7 7 9 7 8 6 5 5 5 4 3 3 2 3 1 3 4 4 3 4 4
10 9 8 9 9 8 8 10 8 7 9 7 5 5 7 6 5 5 2 3 2 2 4 2 3 3 4
11 10 8 9 9 10 8 8 9 10 9 8 7 6 7 5 6 5 4 2 1 1 1 2 2 4 3
16 10 8 7 5 6 6 8 9 11 11 10 9 7 7 7 6 6 6 6 4 1 1 2 3 1 2
18 14 15 12 11 10 10 8 9 14 10 10 8 9 8 7 6 5 4 5 4 4 2 2 2 3 2
Wind_Direction
94 90 91 103 117 120 104 89 82 87 96 97 93 99 97 91 86 83 79 77 76 73 70 66 57 15 66
134 82 75 86 85 78 97 89 86 85 89 90 103 89 94 91 86 80 78 76 71 64 64 55 48 61 58
140 119 113 86 78 94 100 99 133 117 117 114 74 89 93 93 92 84 80 78 87 80 62 38 292 49 48
144 152 141 136 135 121 131 132 115 115 94 96 84 76 78 81 92 85 81 112 219 62 83 204 41 32 40
153 152 155 151 143 140 141 136 122 127 136 111 124 128 110 121 123 138 111 59 53 38 45 37 30 20 21
162 171 164 162 158 159 156 153 153 152 149 146 139 130 127 102 111 82 72 62 66 58 28 22 18 3 8
189 176 172 171 177 167 169 168 171 154 149 154 133 133 119 131 116 112 98 66 40 29 16 1 2 358 357
187 211 182 175 172 177 175 173 178 173 168 162 155 149 152 160 136 140 33 13 10 360 351 356 349 349 357
194 196 195 190 187 189 184 179 181 184 181 183 180 184 175 172 199 211 218 293 311 341 341 342 340 1 12
202 205 195 190 199 196 194 190 192 190 184 192 196 196 189 196 220 233 278 281 304 331 332 348 344 24 42
198 200 202 203 205 207 204 201 197 195 192 191 210 214 198 203 195 216 215 304 313 324 345 327 357 34 100
195 200 203 202 206 208 211 210 204 197 198 211 215 209 200 206 203 200 226 210 276 315 309 325 34 106 82
193 191 204 207 203 205 215 203 200 202 203 202 217 212 198 212 220 203 207 214 211 303 304 312 122 105 70
198 198 200 200 212 208 203 199 196 204 197 200 204 206 211 207 209 193 190 178 183 313 304 293 258 151 169
206 199 203 200 201 201 197 209 210 205 199 200 202 200 202 209 211 190 195 197 183 121 112 313 247 233 317
202 201 202 204 206 213 205 196 199 202 196 206 201 202 208 203 203 177 177 198 185 168 153 80 40 334 263